Karagayly

Kazakhstan     49˚21′27″N   75˚44′19″E
temp.,
°C
wind,
m/s
gust,
m/s
humid.,
%
clouds,
%
prec.,
mm/h
press.,
hPa
HPBL,
m
1 december, tue
tue100:00−21˚se11960 0.0 105220
03:00−20˚e11980 0.0 105120
06:00−19˚ene22950 0.0 105120
09:00−18˚e22870 0.0 105120
12:00−13˚ne36900 0.0 1050176
15:00−14˚ene38930 0.0 1049251
18:00−18˚ene34950 0.0 105026
21:00−18˚ene34956 0.0 105041
2 december, wed
wed200:00−18˚ene23913 0.0 104920
03:00−18˚ene23900 0.0 104820
06:00−18˚ene22860 0.0 104820
09:00−18˚ene22860 0.0 104720
12:00−13˚ene22850 0.0 104557
15:00−12˚ene22760 0.0 104321
18:00−16˚ene12680 0.0 104220
21:00−16˚ese11590 0.0 104220
3 december, thu
thu300:00−16˚sse11550 0.0 104020
03:00−16˚se11535 0.0 103920
06:00−15˚se114916 0.0 103820
09:00−15˚sse225427 0.0 103720
12:00−10˚s126617 0.0 103621
15:00−10˚s226713 0.0 103421
18:00−13˚s226656 0.0 103421
21:00−13˚s2368100 0.0 103420
4 december, fri
fri400:00−13˚s237297 0.0 103323
03:00−13˚s2374100 0.0 103220
06:00−12˚ssw227796 0.0 103121
09:00−12˚s129491 0.1 103121
12:00−9˚ssw129287 0.1 103053
15:00−8˚ssw128925 0.0 103121
18:00−12˚sse119327 0.0 103221
21:00−12˚se119494 0.0 103321
5 december, sat
sat500:00−11˚s129391 0.0 103321
03:00−12˚s119481 0.0 103421
06:00−12˚sse009689 0.1 103421
09:00−12˚ene119699 0.1 103521
12:00−9˚sse009593 0.2 103545
15:00−10˚e019461 0.0 103521
18:00−14˚e119953 0.0 103621
21:00−14˚sse129429 0.0 103821